Overview Statistics Trail Chart Weather Telemetry Raw packets
 

This is the latest recevied weather packets stored in our database for station/object W5ITZ. If no packets are shown the sender has not sent any weather packets the latest 10 day(s).

<< 43 44 45 46 47 48 49 >>
Time Temp. Humidity Pressure Rain* Wind** Luminosity Snow
1787932151 32.22° C 66% 1017.6 hPa 0 mm - 702 W/m² -
1787931849 32.22° C 68% 1017.7 hPa 0 mm - 702 W/m² -
1787931544 31.67° C 69% 1017.5 hPa 0 mm - 686 W/m² -
1787931239 31.67° C 70% 1017.5 hPa 0 mm - 658 W/m² -
1787930938 31.11° C 74% 1017.4 hPa 0 mm - 570 W/m² -
1787930637 31.11° C 74% 1017.2 hPa 0 mm - 173 W/m² -
1787930332 31.11° C 72% 1017.4 hPa 0 mm - 173 W/m² -
1787930028 31.11° C 74% 1017.2 hPa 0 mm - 459 W/m² -
1787929726 31.11° C 73% 1017.4 hPa 0 mm - 199 W/m² -
1787929421 31.11° C 74% 1017.4 hPa 0 mm - 381 W/m² -
1787929118 31.11° C 74% 1017.5 hPa 0 mm - 492 W/m² -
1787928814 31.11° C 74% 1017.5 hPa 0 mm - 479 W/m² -
1787928513 30.56° C 74% 1017.4 hPa 0 mm - 475 W/m² -
1787928212 30.56° C 76% 1017.1 hPa 0 mm - 450 W/m² -
1787927911 30.56° C 77% 1017.1 hPa 0 mm - 423 W/m² -
1787927606 30° C 77% 1016.9 hPa 0 mm - 404 W/m² -
1787927301 30° C 79% 1017.2 hPa 0 mm - 395 W/m² -
1787926997 30° C 79% 1017.1 hPa 0 mm - 365 W/m² -
1787926691 30° C 80% 1017.1 hPa 0 mm - 363 W/m² -
1787926389 30° C 81% 1017.1 hPa 0 mm - 353 W/m² -
1787926084 30° C 81% 1017 hPa 0 mm - 326 W/m² -
1787925784 30° C 82% 1017.1 hPa 0 mm - 293 W/m² -
1787925483 30° C 82% 1017 hPa 0 mm - 266 W/m² -
1787925178 29.44° C 83% 1017 hPa 0 mm - 250 W/m² -
1787924876 29.44° C 84% 1016.7 hPa 0 mm - 230 W/m² -

* Rain latest hour (hover to see other rain measurements)
** Current wind speed in m/s (hover to see current wind gust speed)